Вернуться в каталог

CZ-4C R/B

АктивенLEO
NORAD 36416·ROCKET BODY·🇨🇳 China

Запущен Mar 5, 2010 с Jiuquan Satellite Launch Center

Loading…

Ближайшие Пролёты (ближайшие 24 часа)

TLE

СвежийSource: Space-Track

Эпоха: Sep 14, 2026, 04:19 UTC

1 36416U 10009D   26257.18040882  .00001376  00000-0  24633-3 0  9991
2 36416  63.3827 161.3583 0707738   4.0360 356.5985 13.73380258826808

Отслеживайте CZ-4C R/B в реальном времени с AllMySat

Download on the App Store